Location: Unspecified
(0.0000°N, 0.0000°E)
Time: 07:19:57
(UTC+00:00)

Vanguard 2 Rocket - Pass Details

Date: 03 October 2023
Orbit: 552 x 3312 km, 32.9° (Epoch: 06 December)

Event Time Altitude Azimuth Distance (km) Brightness Sun altitude
Rises 04:11:37 0° 210° (SSW) 3,094 - -24.3°
Exits shadow 04:13:40 - 199° (SSW) 2,459 9.0 -23.8°
Reaches altitude 10° 04:13:57 10° 197° (SSW) 2,381 8.9 -23.8°
Maximum altitude 04:18:45 28° 138° (SE) 1,877 8.9 -22.6°
Drops below altitude 10° 04:25:59 10° 82° (E) 3,707 11.1 -20.8°
Sets 04:30:38 0° 73° (ENE) 5,219 12.0 -19.6°
